weather.gov     
National Weather Service

Regional Weather Roundup
NWS Homepage
This page is being discontinued on March 12, 2014.
The same data is available at this site. Please update your bookmarks.
Thank you, and we apologize for the inconvenience.
Please send an email to SR-SRH.Webmaster@noaa.gov with any concerns.


Current Version
Previous Version:    01  02  03  04  05  06  07  08  09  10  11  12  13  14  15  16  17  18  19  20  21  22  23  24  25  26  27  28  29  30  
   31  32  33  34  35  36  37  38  39  40  41  42  43  44  45  46  47  48  49  50  51  52  53  54  55  56  57  58  59  60  
[Printable]
896
ASUS44 KLIX 242010
RWRLA
LOUISIANA WEATHER ROUNDUP
NATIONAL WEATHER SERVICE NEW ORLEANS LA
200 PM CST MON NOV 24 2014

NOTE: "FAIR" INDICATES FEW OR NO CLOUDS BELOW 12,000 FEET WITH NO
      SIGNIFICANT WEATHER AND/OR OBSTRUCTIONS TO VISIBILITY.
      SKY/WX - SKY CONDITION AND SIGNIFICANT WEATHER.
      TMP - AIR TEMPERATURE.    DP   - DEWPOINT TEMPERATURE.
      RH  - RELATIVE HUMIDITY.  PRES - PRESSURE.
      HX  - HEAT INDEX.         WCI  - WIND CHILL INDEX.

*  THESE STATIONS ARE NOT NWS OR FAA STATIONS AND ARE NOT UNDER
   NWS QUALITY CONTROL.

LAZ040-048-061>063-065-066-069-242100-
SOUTHEAST LOUISIANA

CITY           SKY/WX    TMP DP  RH WIND       PRES   REMARKS
N.O. AUDUBON     N/A     69  53  55 MISG        N/A
N.O. INTL ARPT PTSUNNY   69  48  47 NW14      29.90R
N.O. LAKEFRONT SUNNY     63  54  72 W9        29.90R
N.O. DOWNTOWN* FAIR      68  48  49 NW9       29.90R
SLIDELL        SUNNY     72  48  42 N9        29.87R
BATON ROUGE    SUNNY     67  44  43 NW10      29.93R
BOOTHVILLE     SUNNY     70  57  63 NW15      29.85F
BELLE CHASSE   PTSUNNY   69  48  47 NW10G18   29.87S
BOGALUSA*        N/A     69  45  41 N12       29.91R
NEW ROADS*     FAIR      63  42  46 NW12      29.95R
GONZALES*      FAIR      67  47  48 NW8       29.91R
HAMMOND*       SUNNY     70  45  40 NW9G16    29.92R
HOUMA*         NOT AVBL
PORT FOURCHON* CLEAR     73  55  53 NW12      29.89S

$$

LAZ041-044-053-054-242100-
SOUTHWEST LOUISIANA

CITY           SKY/WX    TMP DP  RH WIND       PRES   REMARKS
LAKE CHARLES   MOSUNNY   62  36  37 N13       29.97S
LAFAYETTE      SUNNY     65  45  48 N13       29.95S
PATTERSON      SUNNY     66  46  48 NW10      29.93R
SALT POINT       N/A     71  48  43 NW10G17   29.90R
NEW IBERIA     SUNNY     67  46  47 N15       29.94S
CHENAULT AIRPK NOT AVBL

$$

LAZ027-028-242100-
CENTRAL LOUISIANA

CITY           SKY/WX    TMP DP  RH WIND       PRES   REMARKS
FORT POLK      SUNNY     62  33  34 N12       29.98R
ALEXANDRIA INT SUNNY     63  34  33 NW13      29.97R
ALEXANDRIA     SUNNY     64  35  34 N8        29.97S

$$

LAZ001-002-242100-
NORTHWEST LOUISIANA

CITY           SKY/WX    TMP DP  RH WIND       PRES   REMARKS
SHREVEPORT     MOSUNNY   62  28  27 NW10      29.99F
BARKSDALE AFB  SUNNY     62  26  25 NW12      30.00S
DTN SHREVEPORT SUNNY     61  24  24 NW14G21   30.00S

$$

LAZ014-016-242100-
NORTHEAST LOUISIANA

CITY           SKY/WX    TMP DP  RH WIND       PRES   REMARKS
MONROE         SUNNY     62  34  35 N8        29.98R
TALLULAH       SUNNY     62  35  36 NW12      29.96S

$$





U.S. Dept. of Commerce
NOAA National Weather Service
1325 East West Highway
Silver Spring, MD 20910
E-mail: w-nws.webmaster@noaa.gov
Page last modified: May 16, 2007
NATIONAL WEATHER SERVICE: for Safety, for Work, for Fun - FOR LIFE